Weather History for Minneapolis Flying Cloud, MN

Change the Weather History Date:

Friday, February 15, 2013

  Actual Average Record
Temperature  
Mean Temperature 12 °F -  
Max Temperature 18 °F 28 °F 44 °F (1999)
Min Temperature 3 °F 13 °F -9 °F (2001)
Degree Days  
Heating Degree Days 54    
Moisture  
Dew Point 0 °F    
Average Humidity 66    
Maximum Humidity 80    
Minimum Humidity 50    
Precipitation  
Precipitation 0.00 in - - ()
Sea Level Pressure  
Sea Level Pressure 30.31 in    
Wind  
Wind Speed 8 mph (WNW)    
Max Wind Speed 14 mph    
Max Gust Speed 20 mph    
Visibility 10 miles    
Events      
Averages and records for this station are not official NWS values.
T = Trace of Precipitation, MM = Missing Value Source: NWS Daily Summary

Daily Weather History Graph

Daily Weather History Graph

Search for Another Location

Airport:

Trip Planner

Search our weather history database for the weather conditions in past years. The results will help you decide how hot, cold, wet, or windy it might be!

Date:

Astronomy

Feb. 15, 2013 Rise Set
Actual Time 7:13 AM CST 5:42 PM CST
Civil Twilight 6:43 AM CST 6:12 PM CST
Nautical Twilight 6:09 AM CST 6:46 PM CST
Astronomical Twilight 5:35 AM CST 7:20 PM CST
Moon 9:33 AM CST (2/15) No Moon Set
Length of Visible Light 11h 28m
Length of Day
10h 28m
Waxing Crescent, 30% of the Moon is Illuminated
Feb 15
Waxing Crescent
Feb 17
First Quarter
Feb 25
Full
Mar 4
Last Quarter
Mar 11
New

Hourly Weather History & Observations

Time (CST) Temp. Windchill Dew Point Humidity Pressure Visibility Wind Dir Wind Speed Gust Speed Precip Events Conditions
12:53 AM 9.0 °F 0.6 °F -0.0 °F 67% 30.22 in 10.0 mi West 4.6 mph - N/A   Scattered Clouds
1:53 AM 10.0 °F -2.9 °F -0.9 °F 61% 30.23 in 10.0 mi WNW 9.2 mph - N/A   Overcast
2:53 AM 9.0 °F -2.2 °F -0.0 °F 67% 30.24 in 10.0 mi WNW 6.9 mph - N/A   Overcast
3:53 AM 8.1 °F -3.2 °F -0.0 °F 70% 30.25 in 10.0 mi WNW 6.9 mph - N/A   Overcast
4:53 AM 7.0 °F -6.6 °F -0.0 °F 73% 30.26 in 10.0 mi NW 9.2 mph - N/A   Partly Cloudy
5:53 AM 6.1 °F -7.8 °F -0.0 °F 76% 30.28 in 10.0 mi WNW 9.2 mph - N/A   Clear
6:53 AM 5.0 °F -9.1 °F -0.0 °F 80% 30.29 in 10.0 mi NW 9.2 mph - N/A   Clear
7:53 AM 6.1 °F -7.8 °F -0.0 °F 76% 30.32 in 10.0 mi NW 9.2 mph - N/A   Clear
8:53 AM 7.0 °F -8.3 °F -0.0 °F 73% 30.34 in 10.0 mi NNW 11.5 mph - N/A   Clear
9:53 AM 10.0 °F -3.7 °F 1.0 °F 67% 30.34 in 10.0 mi NW 10.4 mph - N/A   Clear
10:53 AM 12.0 °F -2.7 °F 1.0 °F 61% 30.34 in 10.0 mi NNW 12.7 mph 19.6 mph N/A   Clear
11:53 AM 14.0 °F -0.8 °F 1.9 °F 59% 30.34 in 10.0 mi NNW 13.8 mph - N/A   Clear
12:53 PM 15.1 °F 1.8 °F 1.9 °F 56% 30.33 in 10.0 mi NW 11.5 mph - N/A   Clear
1:53 PM 16.0 °F 2.3 °F 1.0 °F 52% 30.32 in 10.0 mi NW 12.7 mph - N/A   Clear
2:53 PM 17.1 °F 4.3 °F 1.9 °F 52% 30.32 in 10.0 mi WNW 11.5 mph - N/A   Clear
3:53 PM 18.0 °F 6.1 °F 1.9 °F 50% 30.33 in 10.0 mi WNW 10.4 mph - N/A   Clear
4:53 PM 16.0 °F 2.9 °F 1.9 °F 54% 30.34 in 10.0 mi West 11.5 mph - N/A   Clear
5:53 PM 12.9 °F 1.6 °F 1.0 °F 59% 30.34 in 10.0 mi West 8.1 mph - N/A   Clear
6:53 PM 10.9 °F 1.4 °F 1.0 °F 64% 30.34 in 10.0 mi West 5.8 mph - N/A   Clear
7:53 PM 10.0 °F 0.4 °F -0.0 °F 64% 30.33 in 10.0 mi West 5.8 mph - N/A   Clear
8:53 PM 8.1 °F -3.2 °F -0.0 °F 70% 30.33 in 10.0 mi West 6.9 mph - N/A   Clear
9:53 PM 8.1 °F -4.3 °F -0.0 °F 70% 30.32 in 10.0 mi WNW 8.1 mph - N/A   Clear
10:53 PM 6.1 °F -7.8 °F -0.9 °F 73% 30.32 in 10.0 mi WNW 9.2 mph - N/A   Clear
11:53 PM 3.0 °F -6.4 °F -2.0 °F 80% 30.31 in 10.0 mi West 4.6 mph - N/A   Clear